Wind_Speed
136 137 137 138 138 138 138 138 138 139 139 139 138 138 137 137 137 136 135 135 134 134 133 133 132 132 133 133 134 134 135 136 136 137 138 138 139 139 139 139 138 137 137 136 135 134 133 133 132 131 130 129 128 127 126 126 125 125 124 124 124 124 124 124 123 123 123 123 122 122 122 122 121 121 121 121 120 119 119 117 116 115 115 114 114 114
135 136 136 136 136 136 136 136 136 136 136 136 136 135 135 135 134 134 133 133 132 132 131 131 130 130 130 130 131 131 132 132 133 134 134 135 135 136 136 136 136 136 135 134 133 132 131 131 130 129 129 128 127 127 126 125 124 124 124 124 124 124 123 123 123 123 123 123 123 122 122 122 122 122 122 122 121 121 120 119 118 117 116 115 115 115
133 133 133 133 133 133 133 133 133 133 133 133 132 132 132 131 131 131 130 130 129 129 128 128 128 127 127 127 127 127 128 128 129 129 130 130 131 132 132 132 133 133 132 132 131 130 129 128 127 127 126 126 125 125 124 124 123 123 123 123 123 123 123 123 123 123 122 122 122 122 122 122 122 122 122 122 122 121 121 120 119 118 117 117 116 116
130 130 130 130 130 130 130 130 130 129 129 129 129 128 128 128 127 127 126 126 125 125 125 124 124 123 123 123 123 123 123 123 124 124 125 125 126 126 127 127 128 128 128 128 128 127 126 125 125 124 123 123 122 122 122 121 121 121 121 121 121 122 122 122 122 122 122 122 122 122 122 122 122 122 122 122 122 122 122 121 120 119 119 118 117 117
128 128 127 127 126 126 126 126 125 125 125 124 124 123 123 123 122 121 121 120 120 120 119 119 118 118 118 118 117 117 118 118 118 118 119 119 120 120 121 122 122 123 123 123 123 123 122 122 121 120 120 119 119 119 119 118 118 119 119 119 119 120 120 120 121 121 121 121 121 121 121 121 121 122 122 122 122 122 122 121 121 120 119 119 118 118
125 124 123 123 122 122 121 121 120 120 119 118 118 117 117 116 116 115 115 114 114 113 113 112 112 112 112 111 111 111 111 112 112 112 112 113 113 114 115 115 116 116 117 117 117 117 117 117 117 116 116 116 115 115 115 115 115 115 116 116 117 117 118 118 119 119 120 120 120 120 120 120 121 121 121 122 122 122 122 122 121 121 120 119 119 118
120 119 118 118 117 116 115 115 114 113 113 112 111 110 110 110 109 109 108 108 107 107 106 105 105 105 105 105 105 105 105 105 105 105 106 106 107 107 108 108 109 110 110 111 111 111 112 112 112 112 112 111 111 111 111 111 111 111 112 112 113 114 115 116 117 117 118 118 118 118 119 119 119 120 120 121 121 121 121 121 121 121 120 120 119 119
114 113 113 112 111 110 109 108 108 107 107 106 105 104 104 103 103 102 102 101 101 100 100 99 99 99 99 99 99 99 99 99 99 99 100 100 101 101 101 102 102 103 104 104 105 105 106 106 106 106 107 107 107 107 107 107 107 107 108 108 109 110 111 112 113 114 115 115 116 116 117 117 118 118 119 119 120 120 121 121 121 120 120 120 119 119
108 107 106 105 105 104 103 103 102 101 101 100 99 98 98 98 97 97 96 96 95 95 94 94 94 94 93 93 93 93 93 93 94 94 94 95 95 95 96 96 97 97 98 98 99 100 100 101 101 101 101 102 102 102 102 103 103 103 103 104 105 106 107 108 110 111 112 113 113 114 115 115 116 116 117 118 118 119 119 120 120 120 120 119 119 119
102 101 100 100 99 98 98 97 97 96 96 95 94 94 93 93 92 92 91 91 90 90 90 89 89 89 89 89 89 88 88 89 89 89 89 90 90 90 91 91 92 92 93 93 94 94 95 95 96 96 96 97 97 97 97 98 98 98 99 99 100 101 102 104 105 107 108 109 110 111 112 112 113 114 115 116 116 117 118 118 119 119 119 119 119 119
97 96 95 95 94 94 93 93 92 92 91 90 90 89 89 88 88 88 87 87 87 86 86 85 85 85 85 85 84 84 84 84 84 85 85 85 86 86 86 87 87 87 88 88 89 89 90 90 91 91 92 92 92 92 93 93 93 94 94 95 96 97 98 99 101 102 103 105 106 107 108 109 110 111 112 113 114 115 116 117 117 118 118 118 118 118
92 91 91 90 90 89 89 89 88 88 87 87 86 86 85 84 84 83 83 83 83 82 82 81 81 80 81 81 81 81 80 80 81 81 81 81 82 82 82 83 83 83 84 84 85 85 86 86 86 87 87 88 88 88 88 89 89 89 90 90 91 92 93 95 96 98 99 100 102 103 104 105 106 108 109 110 111 112 113 114 115 116 116 116 117 117
88 87 86 86 86 85 85 84 84 84 83 83 82 82 81 81 80 79 79 78 78 78 78 77 77 77 77 77 77 77 77 77 77 77 77 78 78 79 79 79 79 79 80 80 81 81 82 82 82 83 83 84 84 85 85 85 85 86 86 87 87 88 89 90 92 93 94 96 97 98 100 101 102 104 105 107 108 109 110 112 113 114 114 115 115 115
84 83 82 82 82 81 81 80 80 80 79 79 78 78 77 77 76 75 75 74 74 74 74 73 73 73 73 73 73 73 73 73 73 74 74 75 75 75 75 75 75 76 76 76 77 78 78 78 79 79 80 80 81 81 81 81 82 82 83 83 84 84 85 86 88 89 90 92 93 94 95 97 98 100 101 103 104 106 107 109 110 111 112 113 113 114
79 78 78 78 77 77 77 77 76 76 76 75 75 74 73 73 72 72 71 71 70 70 70 70 70 70 70 70 70 70 69 69 70 70 71 72 72 72 72 72 72 72 73 73 74 74 75 75 75 76 76 77 77 78 78 78 79 79 79 80 80 81 82 83 84 85 86 88 89 90 91 93 94 95 97 99 100 102 103 105 107 108 109 110 111 111
75 74 74 74 74 74 74 73 73 72 72 72 71 71 70 69 69 68 68 67 67 67 66 66 67 67 67 67 67 67 66 66 66 67 68 69 69 69 69 69 69 69 70 70 71 71 71 71 72 73 73 74 74 75 75 75 76 76 76 77 77 78 79 80 81 82 83 84 85 86 88 89 90 91 93 94 96 98 100 101 103 105 106 107 108 109
71 71 70 70 70 70 70 70 69 69 69 69 68 67 67 66 66 65 65 64 64 63 63 64 64 64 65 65 65 64 63 63 63 64 65 66 66 67 66 66 66 67 67 68 68 68 68 68 69 70 70 71 72 72 72 73 73 73 74 74 74 75 76 77 78 79 80 81 82 83 84 85 86 88 89 90 92 94 96 97 99 101 102 103 104 106
68 68 68 68 68 67 67 67 67 66 66 66 65 65 64 63 63 63 62 62 61 61 61 61 61 62 62 62 62 62 61 61 61 61 62 63 64 64 64 64 64 64 65 65 65 65 65 66 66 67 68 68 69 69 70 70 71 71 71 71 72 72 73 74 75 76 77 78 79 80 81 82 83 84 86 87 88 90 92 93 95 97 98 100 101 102
64 65 66 66 66 65 65 65 64 64 63 63 62 62 61 61 61 60 60 59 59 59 59 59 59 60 60 60 60 60 59 59 59 59 60 61 62 62 62 61 61 62 63 63 63 63 63 64 64 65 66 66 67 67 68 68 68 69 69 69 69 70 71 72 72 73 74 75 76 77 78 79 80 81 82 84 85 86 88 90 91 93 94 96 97 99
61 62 63 64 64 64 63 63 62 62 61 60 60 59 59 59 58 58 57 57 57 57 57 57 57 58 58 58 58 58 58 57 57 58 58 59 60 60 60 59 59 60 61 61 61 61 62 62 63 63 64 64 65 65 65 66 66 67 67 67 67 68 69 69 70 71 72 73 74 75 75 76 77 78 80 81 82 83 85 86 88 89 91 92 94 95
58 59 60 61 61 61 61 61 61 60 59 59 58 57 57 56 56 56 55 55 55 55 55 55 56 56 56 56 57 57 56 56 55 56 57 58 58 58 58 57 57 58 59 59 59 59 60 60 61 62 62 63 63 63 64 64 64 65 65 65 66 66 67 67 68 69 70 70 71 72 73 74 75 76 77 78 79 80 82 83 84 86 87 89 90 91
56 57 57 58 58 58 58 59 59 58 58 57 56 56 55 55 54 54 53 53 53 53 53 54 54 54 54 54 55 55 54 54 54 54 55 56 57 57 56 56 56 56 57 57 57 57 58 59 60 60 61 61 61 61 62 62 62 63 63 63 64 64 65 65 66 67 68 68 69 70 71 72 73 74 74 75 77 78 79 80 81 83 84 85 87 88
55 55 55 55 55 56 56 56 56 57 56 55 55 54 53 53 52 52 52 52 52 52 52 52 52 52 53 53 53 53 52 52 52 53 53 54 55 55 55 54 54 55 55 56 56 56 56 57 57 58 59 59 59 60 60 60 60 61 61 62 62 62 63 64 64 65 66 66 67 68 69 70 70 71 72 73 74 75 76 77 79 80 81 82 83 85
53 53 53 53 53 53 53 54 54 54 54 54 53 53 52 52 51 51 51 51 50 50 50 50 50 51 51 51 51 50 50 50 50 51 51 52 53 53 53 53 53 53 54 54 54 54 54 55 55 56 56 57 57 58 58 59 59 59 60 60 60 61 61 62 62 63 64 65 65 66 67 68 68 69 70 71 72 73 74 75 76 77 78 79 81 82
52 52 52 52 52 51 51 52 52 52 52 52 52 51 51 50 50 50 50 49 49 49 49 49 49 49 49 49 49 49 49 49 49 49 49 50 51 51 52 51 51 52 52 53 53 52 52 53 53 54 54 55 55 56 56 57 57 57 58 58 59 59 60 60 61 61 62 63 64 64 65 66 67 67 68 69 70 71 72 73 74 75 76 77 78 79
51 51 50 50 50 50 50 50 50 50 50 50 50 50 50 49 49 49 49 49 48 48 48 48 48 48 48 47 47 47 47 47 47 47 47 48 49 50 50 50 50 50 51 51 51 51 51 51 51 51 52 52 53 54 54 55 55 56 56 57 57 57 58 58 59 59 60 61 62 62 63 64 65 66 66 67 68 69 70 71 72 73 74 75 76 77
50 50 49 49 49 48 48 48 48 48 48 48 48 48 48 48 48 48 48 48 48 47 47 47 47 46 46 46 46 46 46 45 45 45 46 46 47 48 49 48 48 48 49 50 50 50 49 49 49 49 50 50 51 52 53 53 54 54 55 55 55 56 56 57 57 58 58 59 60 61 61 62 63 64 65 65 66 67 68 69 70 71 72 73 74 74
49 49 48 48 47 47 47 47 47 47 47 47 47 47 46 46 46 47 47 47 47 46 46 46 46 45 45 44 44 44 44 44 44 44 44 45 46 47 47 47 47 47 47 48 48 48 48 48 48 48 48 49 49 50 51 51 52 52 53 53 54 54 54 55 55 56 57 57 58 59 60 61 61 62 63 64 65 65 66 67 68 69 70 71 72 72
48 48 47 47 46 46 46 45 45 45 45 45 45 45 45 45 45 45 46 46 46 45 45 45 45 44 44 44 43 43 43 43 42 43 43 44 44 45 46 45 45 45 46 46 47 47 47 47 46 46 46 47 48 48 49 49 50 51 51 52 52 52 53 53 54 54 55 56 56 57 58 59 59 60 61 62 63 64 65 66 67 67 68 69 70 70
47 46 46 45 45 45 44 44 44 44 44 44 43 43 43 43 43 44 44 45 45 45 44 44 44 43 43 42 42 42 42 42 41 41 42 42 43 44 44 44 43 44 44 45 45 46 46 45 45 45 45 46 46 46 47 48 48 49 50 50 50 51 51 52 52 53 53 54 55 56 56 57 58 59 59 60 61 62 63 64 65 66 66 67 68 68
46 46 45 45 44 44 43 43 43 43 42 42 42 42 42 42 42 42 43 43 44 44 44 43 43 42 42 41 41 41 41 41 40 40 41 41 42 43 43 42 42 43 43 43 44 44 45 44 44 44 44 44 45 45 45 46 47 47 48 48 49 49 50 50 51 51 52 52 53 54 55 55 56 57 58 59 60 61 61 62 63 64 64 65 66 67
46 45 45 44 44 43 43 42 42 41 41 41 41 41 41 41 41 41 42 42 42 43 43 43 42 42 41 41 40 40 40 40 39 39 40 41 42 42 42 41 41 41 42 42 43 43 44 44 43 43 43 43 43 44 44 44 45 46 47 47 48 48 48 49 49 50 50 51 52 52 53 54 54 55 56 57 58 59 60 60 61 62 63 63 64 65
45 45 44 44 43 43 42 42 41 41 40 40 40 40 39 40 40 40 41 41 42 42 42 42 42 41 40 40 40 40 40 39 38 38 39 40 41 41 41 40 40 40 41 41 42 42 43 43 43 43 42 42 42 42 43 43 44 44 45 46 46 47 47 47 48 48 49 50 50 51 51 52 53 54 54 55 56 57 58 59 59 60 61 61 62 63
45 44 44 44 43 43 42 42 41 41 41 40 39 39 39 39 39 39 40 40 41 41 42 42 41 41 40 40 40 39 39 38 37 37 38 39 40 40 40 39 39 39 40 40 41 41 42 42 42 42 42 41 41 41 41 42 43 43 44 44 45 45 46 46 47 47 48 48 49 49 50 51 51 52 53 54 55 55 56 57 58 58 59 60 60 61
44 44 44 44 43 43 43 42 42 41 41 40 40 39 38 38 38 38 39 39 40 41 41 41 41 41 41 40 40 40 39 38 37 37 37 37 38 39 39 38 38 38 39 39 40 41 41 41 41 41 41 41 40 40 40 41 41 42 43 43 44 44 45 45 46 46 46 47 47 48 49 49 50 51 51 52 53 54 54 55 56 56 57 58 59 59
44 44 44 44 43 43 43 43 42 42 42 41 40 40 39 38 38 38 38 38 39 40 40 41 41 41 41 41 41 40 39 38 37 36 36 37 37 37 38 37 37 38 38 39 39 40 40 41 41 41 40 40 40 40 40 40 40 41 42 42 43 43 44 44 45 45 45 46 46 47 48 48 49 49 50 51 52 52 53 54 54 55 55 56 57 58
44 44 44 44 44 43 43 43 43 43 42 42 41 41 40 39 38 38 38 38 38 39 40 40 41 41 41 41 41 41 40 39 38 37 36 36 36 36 37 37 37 37 37 38 38 39 40 40 40 40 40 40 40 39 39 39 40 40 41 41 42 42 43 43 44 44 44 45 45 46 46 47 47 48 49 49 50 51 51 52 53 53 54 55 55 56
43 43 43 43 43 43 43 43 43 42 42 42 42 41 41 40 39 38 38 38 38 38 39 40 40 41 42 42 42 41 41 40 39 37 36 36 35 36 36 36 36 36 36 37 37 38 39 39 39 39 39 39 39 39 39 39 39 39 40 40 41 41 42 42 43 43 43 44 44 45 45 46 46 47 47 48 49 49 50 51 51 52 52 53 54 55
41 41 42 42 42 42 42 42 42 42 42 42 42 42 41 41 40 39 38 38 38 38 38 39 40 41 41 42 42 42 41 41 39 38 37 36 35 35 35 35 35 35 36 36 37 37 38 38 39 39 39 39 39 39 39 39 39 39 39 39 39 40 41 41 42 42 42 42 43 43 44 44 45 46 46 47 47 48 48 49 50 50 51 51 52 53
40 40 40 41 41 41 41 41 41 41 41 41 41 41 41 41 40 39 38 38 37 38 38 39 39 40 41 42 42 42 42 41 40 39 37 36 35 35 35 35 35 35 35 35 36 37 37 38 38 38 38 38 38 38 39 39 39 38 38 38 38 39 39 40 40 41 41 41 42 42 43 43 44 44 45 45 46 47 47 48 48 49 49 50 51 52
39 39 39 40 40 40 40 40 40 40 40 40 40 40 40 40 40 39 38 38 37 37 37 38 39 40 41 42 42 43 43 42 41 39 38 37 36 35 35 35 34 34 35 35 35 36 36 37 37 37 38 38 38 38 38 38 38 38 38 37 37 38 38 39 39 40 40 40 41 41 41 42 42 43 44 44 45 45 46 46 47 47 48 49 49 50
38 39 39 39 39 40 40 40 40 40 39 39 39 39 39 39 39 38 37 37 37 36 37 37 38 39 40 41 42 43 43 42 41 40 39 37 36 35 35 35 34 34 34 35 35 35 36 36 37 37 37 37 38 38 38 38 38 37 37 37 37 36 37 37 38 38 39 40 40 40 41 41 41 42 42 43 43 44 45 45 46 46 47 47 48 49
38 38 38 38 39 39 39 40 40 40 39 39 39 38 38 38 38 37 37 36 36 35 36 36 37 38 40 41 42 42 43 42 42 41 39 38 37 36 35 35 35 34 35 35 35 35 35 36 36 36 37 37 37 38 38 38 37 37 37 36 36 36 36 36 36 37 38 39 39 40 40 40 40 41 41 42 42 43 44 44 45 45 46 46 47 48
36 37 37 38 38 39 39 39 40 40 40 39 39 38 37 37 36 36 36 35 35 35 35 35 36 37 39 40 41 42 42 42 42 41 40 39 37 36 36 35 35 35 35 35 35 35 35 35 36 36 36 37 37 38 38 37 37 36 36 36 35 35 35 35 35 36 37 38 38 39 39 39 39 40 40 41 42 42 43 43 44 44 45 46 46 47
34 35 35 36 37 37 38 39 39 39 40 39 39 38 37 36 36 35 35 34 34 34 34 34 35 36 38 39 40 41 41 41 41 41 40 39 38 37 36 35 35 35 35 35 35 35 35 35 36 36 36 36 37 37 37 37 36 36 36 36 36 36 36 35 35 35 36 37 37 38 38 39 39 39 40 40 41 41 42 42 43 44 44 45 46 47
33 33 34 34 35 35 36 37 37 38 38 39 38 38 37 36 35 35 34 34 33 33 33 33 34 35 36 38 38 39 40 40 40 40 39 39 38 37 36 36 35 35 35 34 35 35 35 35 36 36 36 36 36 36 36 36 36 36 36 36 36 36 36 36 35 35 35 35 36 37 37 38 39 39 39 40 40 41 41 42 43 43 44 45 45 46
31 32 32 33 33 34 34 35 35 36 37 37 37 37 36 36 35 34 34 33 33 33 33 33 33 34 35 36 37 37 38 38 39 39 39 39 38 37 37 36 35 35 35 34 34 35 35 35 36 36 36 36 35 35 35 35 35 36 36 37 37 37 37 36 35 35 35 35 35 36 36 37 38 39 39 39 40 40 41 42 42 43 44 44 45 46
31 31 32 32 32 33 33 34 34 34 35 35 36 36 35 35 34 34 33 33 33 33 33 33 33 33 34 35 35 36 36 37 37 38 38 38 38 37 37 36 35 35 35 34 34 35 35 35 35 35 35 35 35 34 34 34 35 35 36 36 37 37 37 36 36 35 35 35 35 35 36 37 38 38 39 39 40 40 41 41 42 43 43 44 45 46
32 32 32 33 33 33 33 33 34 34 34 34 34 34 34 34 33 33 33 33 33 33 33 33 33 33 33 33 34 34 35 36 36 37 37 37 37 37 36 36 35 35 34 34 34 35 35 35 35 35 34 34 33 33 33 34 34 35 35 36 36 36 36 36 36 36 35 35 35 35 35 36 37 38 38 39 40 40 41 41 42 43 43 44 45 45
33 34 34 34 34 34 34 34 34 34 34 34 34 33 33 33 32 32 32 32 32 32 33 33 33 33 33 33 33 33 34 35 35 36 36 37 36 36 36 35 35 34 34 34 34 34 35 35 35 34 33 33 32 32 32 33 33 34 34 34 35 35 36 36 36 36 36 36 35 35 35 36 36 37 38 39 40 40 41 41 42 42 43 44 44 45
35 35 35 35 35 35 35 35 35 34 34 34 33 33 33 32 31 31 31 31 31 31 31 32 32 32 32 32 32 33 33 34 34 35 35 36 36 35 35 35 34 34 33 33 34 34 34 34 34 33 33 32 31 31 31 32 32 33 33 33 33 34 34 35 36 36 37 36 36 36 35 35 36 37 38 38 39 40 40 41 41 42 42 43 43 44
Wind_Direction
280 280 280 280 279 279 279 279 278 278 278 278 277 277 277 277 277 277 276 276 276 275 275 274 274 273 273 272 272 272 271 271 271 271 271 271 271 271 271 271 271 271 271 271 270 270 270 269 269 269 269 268 268 268 267 267 267 266 266 266 265 265 264 264 264 263 263 263 263 262 262 262 262 262 261 261 261 261 260 260 260 259 259 258 258 258
281 281 280 280 280 279 279 279 279 278 278 278 278 277 277 277 277 276 276 276 276 275 275 275 274 274 273 273 272 272 271 271 271 271 270 270 270 270 270 270 270 270 270 270 270 269 269 269 268 268 268 267 267 267 266 266 266 265 265 265 264 264 264 263 263 263 262 262 262 261 261 261 261 261 261 260 260 260 260 260 259 259 258 258 258 257
282 281 281 281 280 280 279 279 279 279 278 278 278 277 277 277 276 276 276 276 275 275 275 274 274 274 273 273 272 272 271 271 271 270 270 270 270 270 270 270 270 270 270 269 269 269 269 268 268 267 267 266 266 266 265 265 265 264 264 264 263 263 263 262 262 262 261 261 261 260 260 260 260 260 260 260 259 259 259 259 259 258 258 258 257 257
283 282 282 281 281 280 280 280 279 279 278 278 278 277 277 277 276 276 276 275 275 275 275 274 274 273 273 273 272 272 271 271 270 270 270 269 269 269 269 269 269 269 269 269 268 268 268 267 267 267 266 266 265 265 264 264 263 263 263 262 262 262 262 261 261 261 260 260 260 260 259 259 259 259 259 259 258 258 258 258 258 258 257 257 257 257
283 283 282 282 281 281 280 280 279 279 279 278 278 278 277 277 276 276 276 275 275 275 274 274 274 273 273 272 272 272 271 271 270 270 269 269 269 268 268 268 268 268 268 268 267 267 267 267 266 266 266 265 265 264 263 263 262 262 262 261 261 261 260 260 260 260 259 259 259 259 258 258 258 258 258 258 257 257 257 257 257 257 256 256 256 256
284 283 283 282 282 281 281 280 280 279 279 278 278 278 277 277 277 276 276 275 275 274 274 274 273 273 273 272 272 271 271 271 270 270 269 269 268 268 268 267 267 267 267 267 267 267 266 266 266 265 265 265 264 263 263 262 261 261 260 260 260 260 259 259 259 258 258 258 258 257 257 257 257 257 256 256 256 256 256 256 256 256 256 255 255 255
284 284 283 283 282 282 281 281 280 279 279 279 278 278 277 277 277 276 276 275 275 275 274 274 274 273 273 272 272 271 271 270 270 270 269 269 268 268 267 267 267 267 266 266 266 266 266 265 265 265 264 264 263 263 262 261 261 260 260 259 259 258 258 258 258 257 257 257 257 256 256 256 256 256 255 255 255 255 255 255 255 255 255 255 254 254
285 284 284 283 282 282 281 281 280 280 279 279 279 278 278 277 277 276 276 276 275 275 274 274 274 273 273 272 272 271 271 270 270 270 269 269 268 268 267 267 267 266 266 266 265 265 265 265 264 264 263 263 263 262 262 261 260 260 259 258 258 257 257 257 257 256 256 256 255 255 255 255 255 254 254 254 254 254 254 254 254 254 254 254 254 253
285 284 284 283 283 282 282 281 281 280 280 279 279 278 278 277 277 277 276 276 276 275 275 274 274 273 273 272 272 271 271 270 270 270 269 268 268 268 267 267 266 266 265 265 265 265 264 264 264 263 263 263 262 262 261 261 260 260 259 258 258 257 257 256 256 256 255 255 255 254 254 254 254 253 253 253 253 253 253 253 253 253 253 253 253 253
285 284 284 283 283 282 282 281 281 280 280 280 279 279 278 278 277 277 277 276 276 275 275 274 274 274 273 273 272 271 271 270 270 269 269 268 268 268 267 267 266 266 265 265 265 264 264 264 263 263 263 262 262 262 261 261 260 259 259 258 257 257 256 256 255 255 255 254 254 254 253 253 253 253 253 252 252 252 252 252 252 252 252 252 252 252
285 284 284 283 283 282 282 281 281 281 280 280 279 279 278 278 278 277 277 277 276 276 275 275 274 274 274 273 272 272 271 270 270 269 269 268 268 267 267 267 266 266 265 265 264 264 264 264 263 263 263 262 262 261 261 260 260 259 259 258 257 257 256 256 255 255 254 254 254 253 253 253 252 252 252 252 252 252 252 251 251 251 251 251 251 251
285 285 284 284 283 283 282 282 281 281 280 280 280 279 279 278 278 278 277 277 276 276 276 275 275 274 274 273 273 272 271 271 270 269 269 268 268 267 267 266 266 266 265 265 264 264 264 263 263 263 262 262 262 261 261 260 260 259 259 258 257 257 256 256 255 255 254 254 253 253 253 252 252 252 251 251 251 251 251 251 251 251 251 251 250 250
286 285 285 284 283 283 282 282 281 281 280 280 280 279 279 279 278 278 277 277 277 276 276 275 275 274 274 273 272 272 271 271 270 270 269 268 268 267 267 266 266 265 265 265 264 264 264 263 263 263 262 262 262 261 261 260 260 259 258 258 257 256 256 255 255 254 254 254 253 253 252 252 252 251 251 251 251 250 250 250 250 250 250 250 250 250
286 285 285 284 284 283 282 282 281 281 280 280 280 279 279 279 278 278 277 277 277 276 276 275 275 274 273 273 272 272 271 271 270 270 269 269 268 267 267 266 266 265 265 264 264 264 263 263 263 262 262 262 261 261 260 260 259 259 258 258 257 256 256 255 255 254 254 253 253 252 252 252 251 251 251 250 250 250 250 250 250 250 249 249 249 249
286 286 285 284 284 283 283 282 282 281 281 280 280 279 279 279 278 278 277 277 276 276 276 275 275 274 273 272 272 271 271 270 270 270 269 269 268 267 267 266 266 265 265 264 264 264 263 263 263 262 262 262 261 261 260 260 259 259 258 257 257 256 256 255 254 254 254 253 253 252 252 251 251 251 250 250 250 249 249 249 249 249 249 249 249 249
286 286 285 284 284 283 283 282 282 281 281 280 280 280 279 279 278 278 277 277 276 276 275 275 274 274 273 272 272 271 271 270 270 269 269 269 268 268 267 267 266 266 265 264 264 264 263 263 263 262 262 262 261 261 260 260 259 259 258 257 257 256 255 255 254 254 253 253 253 252 252 251 251 250 250 250 249 249 249 249 249 249 249 248 248 248
287 286 285 284 284 283 282 282 281 281 281 280 280 280 280 279 279 278 278 277 277 276 275 275 274 273 273 272 272 271 271 270 269 269 269 268 268 268 267 267 266 266 265 265 264 264 263 263 262 262 262 262 261 261 260 260 259 259 258 257 257 256 255 255 254 254 253 253 252 252 252 251 251 250 250 249 249 249 248 248 248 248 248 248 248 248
288 287 286 285 284 283 282 282 281 281 281 281 280 280 280 279 279 278 278 277 277 276 275 275 274 273 273 273 272 272 271 270 269 269 268 268 268 267 267 267 267 266 266 265 265 264 263 263 262 262 261 261 261 260 260 260 259 258 258 257 256 256 255 255 254 254 253 253 252 252 251 251 251 250 250 249 249 248 248 248 248 248 248 248 248 248
288 287 286 285 284 283 283 282 282 281 281 281 281 280 280 279 279 279 278 277 277 276 275 275 274 273 273 272 272 272 271 270 270 269 268 268 267 267 267 266 266 266 265 265 265 264 264 263 262 262 261 261 260 260 260 259 259 258 258 257 256 256 255 254 254 253 253 252 252 252 251 251 250 250 250 249 249 248 248 248 248 248 248 247 247 247
287 286 285 285 284 284 284 283 282 282 281 281 281 280 279 279 279 278 278 277 277 276 275 274 274 273 273 272 272 271 271 270 270 269 268 268 267 267 267 266 266 265 265 265 264 264 263 263 262 261 261 260 260 260 259 259 259 258 258 257 256 255 255 254 254 253 253 252 252 251 251 251 250 250 249 249 249 248 248 248 248 247 247 247 247 247
285 284 284 284 284 284 284 283 283 282 282 281 281 280 279 279 278 278 277 277 276 275 275 274 273 273 272 272 272 271 271 271 270 269 269 268 268 267 267 266 265 265 264 264 264 263 263 262 262 261 261 260 260 260 259 259 258 258 257 257 256 256 255 254 253 253 252 252 251 251 251 250 250 249 249 249 249 248 248 248 247 247 247 247 247 247
285 284 284 283 283 283 283 283 283 283 282 282 281 280 279 279 278 277 277 276 275 275 274 274 273 273 272 272 271 271 271 271 270 269 269 268 268 268 267 266 265 265 264 263 263 263 262 262 262 261 261 261 260 260 259 259 258 258 257 257 256 255 255 254 253 253 252 252 251 251 250 250 250 249 249 248 248 248 248 247 247 247 247 247 247 246
286 285 284 284 283 283 283 283 283 282 282 282 281 280 280 279 278 277 277 276 275 274 274 273 273 272 272 271 271 271 271 270 270 269 269 269 268 268 267 267 266 265 264 264 263 262 262 262 261 261 261 261 260 260 259 259 258 258 257 256 256 255 255 254 253 253 252 252 251 251 250 250 249 249 248 248 248 248 247 247 247 247 247 246 246 246
287 286 285 284 284 283 283 283 282 282 282 282 282 281 280 280 279 278 277 276 275 275 274 273 272 272 271 271 271 271 270 270 269 269 269 268 268 268 267 267 266 265 265 264 263 263 262 261 261 261 261 261 260 260 259 259 258 258 257 256 256 255 254 254 253 253 252 251 251 251 250 250 249 249 248 248 248 247 247 247 247 246 246 246 246 246
288 287 286 285 285 284 283 283 283 282 282 282 282 282 281 281 280 279 278 277 276 275 274 273 272 272 271 271 270 270 270 269 269 269 268 268 268 267 267 267 266 266 265 265 264 263 262 262 261 261 261 260 260 260 259 259 258 258 257 256 256 255 254 254 253 252 252 251 251 250 250 249 249 249 248 248 247 247 247 247 246 246 246 246 245 245
289 288 287 286 285 285 284 283 283 283 283 283 282 282 282 281 281 280 279 278 277 276 275 274 273 272 271 271 270 270 269 269 269 268 268 268 267 267 267 267 266 266 265 265 265 264 263 262 261 261 261 260 260 260 259 259 258 258 257 256 256 255 254 254 253 252 252 251 251 250 250 249 249 248 248 247 247 247 246 246 246 246 246 245 245 245
289 289 288 287 286 285 285 284 284 283 283 283 283 282 282 282 281 280 279 279 278 277 276 275 274 273 272 272 271 270 269 269 268 268 268 267 267 267 267 266 266 266 266 266 265 264 263 262 262 261 261 260 260 259 259 259 258 257 257 256 256 255 254 254 253 252 252 251 251 250 250 249 249 248 248 247 247 247 246 246 246 245 245 245 245 245
290 289 288 288 287 286 285 285 284 284 283 283 283 282 282 282 281 281 280 279 278 278 277 276 275 274 274 273 272 271 270 269 269 268 268 267 267 266 266 266 266 266 266 265 265 264 264 263 262 261 261 260 260 259 259 259 258 258 257 256 256 255 254 254 253 252 252 251 250 250 250 249 249 248 248 247 247 246 246 246 245 245 245 245 244 244
290 289 289 288 287 286 286 285 285 284 283 283 283 282 282 281 281 280 280 279 279 278 277 277 276 275 274 273 273 271 271 270 269 269 268 267 267 266 266 266 266 266 266 265 265 265 264 263 262 262 261 260 260 259 259 259 258 258 257 256 256 255 254 253 253 252 251 251 250 250 249 249 248 248 248 247 247 246 246 245 245 245 244 244 244 244
290 289 289 288 287 287 286 285 285 284 283 283 282 282 281 281 280 280 279 279 279 278 278 277 276 276 275 274 273 272 271 270 270 269 269 268 267 267 266 266 266 266 266 265 265 265 264 263 262 262 261 260 260 259 259 259 258 258 257 257 256 255 254 254 253 252 251 251 250 249 249 248 248 248 247 247 246 246 246 245 245 245 244 244 244 243
290 290 289 288 287 287 286 285 284 284 283 283 282 282 281 280 280 279 279 279 279 278 278 277 276 276 275 274 274 273 272 271 270 270 269 268 267 267 267 266 266 266 265 265 265 265 265 264 263 262 261 260 260 259 259 258 258 258 257 257 256 255 254 254 253 252 251 251 250 249 249 248 248 247 247 247 246 246 245 245 245 244 244 244 243 243
291 290 290 289 288 287 286 285 285 284 283 282 282 282 281 281 280 279 279 279 278 278 278 277 276 276 275 274 273 272 272 271 270 270 269 269 268 267 267 267 266 266 266 265 265 265 265 264 263 262 261 261 260 260 259 259 258 258 257 257 256 256 255 254 253 252 251 251 250 249 249 248 247 247 247 246 246 246 245 245 244 244 244 244 243 243
292 291 291 290 289 289 288 287 286 284 283 282 281 281 280 280 280 279 279 279 278 278 278 277 277 276 275 274 273 272 271 271 270 270 269 269 268 268 268 267 266 266 266 265 265 265 264 264 263 262 261 260 260 260 259 259 258 258 257 257 256 256 255 254 253 252 251 251 250 249 248 248 247 247 246 246 245 245 245 245 244 244 243 243 243 242
293 292 292 291 291 290 289 289 287 286 285 284 282 281 280 279 279 278 278 278 278 278 278 278 277 276 275 274 273 272 271 270 270 269 269 269 268 268 268 268 267 267 266 266 266 265 265 264 263 263 262 261 260 260 259 259 258 258 258 257 257 256 255 254 253 253 252 251 250 249 249 248 247 247 246 246 245 245 244 244 244 243 243 243 242 242
294 293 293 293 292 292 291 290 289 289 287 286 285 283 282 280 279 278 278 277 277 277 277 277 277 276 276 275 274 272 271 270 269 268 268 268 268 268 268 268 268 267 267 266 266 266 265 265 264 263 263 262 260 260 259 258 258 258 258 257 257 256 255 255 254 253 252 251 250 250 249 248 247 247 246 245 245 245 244 244 244 243 243 242 242 242
295 294 294 294 293 293 292 292 291 290 290 289 287 286 285 283 281 279 279 278 277 277 277 277 277 277 276 275 274 273 272 271 269 268 267 267 267 268 268 268 268 267 267 267 266 266 266 266 265 264 263 263 261 260 259 258 258 258 257 257 257 257 256 255 254 253 253 252 251 250 249 248 248 247 246 246 245 244 244 244 243 243 242 242 242 241
295 295 295 294 294 294 293 293 292 292 291 290 290 289 287 286 284 282 280 279 278 277 277 277 277 276 276 275 275 274 273 272 270 269 268 267 267 267 267 267 267 267 267 267 267 267 266 266 266 265 265 264 262 261 260 259 258 257 257 257 257 257 256 256 255 254 253 252 251 251 250 249 248 247 246 246 245 245 244 244 243 243 242 242 241 241
295 294 294 294 294 294 294 293 293 292 292 291 291 290 289 288 286 284 283 281 279 278 277 277 276 276 276 276 275 275 274 273 272 270 269 268 267 267 267 267 267 266 266 266 266 266 266 266 266 266 265 265 264 263 261 260 259 257 257 257 257 257 257 256 256 255 254 253 252 252 251 250 249 248 247 246 246 245 244 244 243 243 242 241 241 241
294 294 294 293 293 293 293 293 293 292 292 292 291 291 290 289 288 286 285 283 281 279 278 277 276 276 275 275 275 275 274 274 273 272 270 269 268 267 267 266 266 266 266 266 266 266 266 266 266 266 266 265 265 264 262 261 260 258 257 257 257 257 257 257 256 256 255 254 253 253 252 251 250 249 248 247 246 245 245 244 243 243 242 241 241 240
294 294 294 294 294 293 293 293 293 292 292 292 291 291 290 289 288 287 286 284 282 280 278 277 276 275 275 275 275 275 275 274 274 273 272 271 269 268 268 267 266 266 266 265 266 266 266 266 266 266 266 266 266 265 264 263 261 260 259 257 257 256 257 257 257 256 256 255 254 254 253 252 251 250 249 248 247 246 245 245 244 243 242 242 241 241
297 296 295 295 295 294 294 294 293 293 293 292 292 291 290 290 289 288 286 285 282 280 278 277 275 274 274 274 274 274 274 275 274 274 273 272 271 270 268 268 267 267 266 265 265 265 266 266 266 267 266 266 266 266 265 264 263 262 261 259 258 257 257 257 257 257 257 256 255 255 253 253 252 251 250 249 248 248 246 245 244 243 242 242 241 240
299 298 298 298 297 297 296 296 295 295 294 293 292 292 291 291 290 288 287 285 283 281 279 277 275 274 273 273 273 273 274 274 275 274 274 273 272 270 269 268 268 267 266 266 265 265 265 265 266 266 266 266 266 266 265 265 264 263 262 261 260 258 257 257 257 257 257 257 256 255 254 254 253 252 251 250 250 248 247 246 245 244 243 242 241 240
301 301 300 300 300 299 299 298 297 297 296 295 294 293 292 291 291 289 288 286 283 281 278 276 275 273 272 272 272 272 273 274 275 275 274 274 273 271 270 269 268 267 267 266 266 265 265 265 265 265 265 265 265 265 265 265 265 264 264 263 262 260 258 257 257 257 257 257 256 256 255 254 253 252 251 251 250 249 248 247 246 244 243 242 241 240
303 302 302 302 302 301 301 300 299 299 298 297 296 295 294 293 292 290 288 286 284 281 278 276 274 273 272 271 272 272 273 273 274 274 274 274 273 272 271 270 268 268 267 266 266 265 265 265 264 264 264 264 265 265 265 265 265 265 265 264 263 261 260 258 256 256 256 256 256 256 255 254 253 252 252 251 250 249 248 247 246 245 244 243 241 240
304 304 303 303 302 302 301 301 300 300 299 298 297 296 295 294 293 291 289 287 284 281 278 276 273 272 271 271 271 272 273 273 274 274 274 274 273 273 271 270 269 268 267 266 266 265 265 264 264 263 263 263 263 264 264 265 265 265 265 264 263 262 260 258 256 255 255 255 255 255 255 255 254 253 252 251 250 249 248 247 247 246 244 243 242 241
304 304 303 303 302 302 301 301 300 300 300 299 298 297 297 295 294 292 290 287 284 281 278 275 273 271 270 271 271 272 273 273 274 274 274 274 273 272 272 271 269 268 267 267 266 265 265 264 264 263 263 262 262 263 264 264 265 265 264 264 263 262 260 259 257 255 254 254 254 255 255 254 254 253 252 251 250 249 248 247 247 246 245 244 242 241
303 303 303 302 302 302 302 302 301 301 300 300 299 298 297 296 294 292 290 287 285 282 279 275 273 271 270 270 271 272 272 273 274 274 274 273 273 272 272 271 270 269 268 267 267 266 265 264 264 263 262 262 262 262 262 263 263 263 263 263 263 262 261 260 259 257 255 254 253 253 254 254 254 253 252 252 250 249 248 247 247 246 245 244 243 242
304 304 304 304 304 304 304 304 303 303 302 301 301 300 298 297 295 293 290 288 285 282 280 277 274 272 271 270 271 271 272 272 272 273 273 273 272 272 272 272 271 270 270 268 267 267 265 265 264 263 263 262 262 262 262 262 262 262 262 262 262 262 262 262 260 259 257 255 254 253 253 253 253 253 253 252 251 250 249 248 247 246 245 244 243 242
307 307 307 307 307 307 307 306 306 305 305 304 303 301 300 298 296 294 292 289 287 284 282 279 277 274 273 271 271 271 271 271 271 272 272 272 272 272 272 272 271 271 270 269 268 267 267 266 265 264 264 263 263 262 262 261 261 260 260 261 262 262 262 262 262 260 259 257 255 253 252 252 252 252 252 252 251 250 249 248 247 246 245 245 244 243
310 310 309 309 309 308 308 308 307 307 306 305 304 303 302 300 298 295 293 290 288 286 284 282 280 277 275 274 272 272 271 271 271 271 272 272 272 272 272 272 272 271 270 270 269 268 267 267 266 265 265 264 263 263 262 261 260 260 260 260 261 261 262 262 262 261 260 258 256 254 252 252 251 251 252 251 251 250 250 249 248 247 246 245 245 244
311 310 310 309 308 308 307 307 307 306 306 305 305 304 303 301 299 297 295 292 290 288 286 285 283 281 279 277 275 274 274 273 273 273 273 273 273 273 273 273 272 271 270 270 269 268 268 267 267 266 266 265 264 263 262 261 260 260 259 259 259 260 260 260 261 261 260 259 258 256 254 252 251 251 251 251 251 251 250 249 249 248 247 247 246 245
Height
10321 10315 10310 10306 10305 10303 10299 10296 10293 10291 10290 10287 10284 10283 10283 10282 10280 10278 10278 10278 10278 10278 10278 10279 10280 10280 10281 10280 10279 10278 10277 10276 10274 10273 10271 10270 10268 10267 10266 10266 10266 10267 10269 10270 10272 10274 10276 10278 10280 10281 10283 10286 10288 10290 10292 10294 10296 10298 10300 10301 10303 10305 10306 10308 10311 10313 10315 10318 10320 10322 10325 10326 10328 10330 10331 10333 10335 10336 10340 10343 10346 10350 10353 10355 10356 10358
10303 10300 10295 10292 10290 10287 10285 10281 10278 10276 10275 10273 10270 10268 10268 10268 10266 10264 10263 10263 10263 10263 10262 10262 10263 10263 10264 10264 10263 10263 10263 10262 10261 10260 10259 10258 10257 10256 10255 10253 10253 10253 10254 10256 10257 10259 10261 10263 10266 10268 10270 10271 10274 10276 10278 10280 10283 10285 10286 10288 10289 10291 10293 10295 10297 10300 10302 10305 10307 10310 10312 10315 10316 10318 10320 10321 10323 10325 10328 10331 10335 10338 10340 10343 10345 10348
10287 10283 10280 10276 10274 10272 10270 10266 10263 10260 10260 10258 10256 10253 10253 10252 10251 10250 10249 10248 10248 10248 10247 10247 10247 10248 10248 10248 10248 10248 10248 10248 10247 10246 10246 10246 10245 10244 10243 10241 10241 10240 10241 10241 10243 10245 10246 10248 10251 10253 10255 10258 10260 10262 10265 10266 10269 10271 10273 10274 10276 10277 10279 10281 10283 10285 10288 10291 10293 10296 10299 10301 10304 10306 10308 10310 10311 10314 10316 10320 10323 10326 10328 10331 10333 10336
10271 10267 10264 10261 10258 10256 10255 10251 10248 10246 10245 10243 10241 10240 10238 10237 10236 10236 10235 10235 10235 10234 10233 10233 10233 10233 10233 10233 10233 10233 10233 10233 10233 10233 10233 10233 10232 10231 10231 10230 10229 10228 10228 10228 10229 10231 10232 10234 10236 10238 10241 10243 10245 10248 10250 10253 10255 10257 10259 10261 10262 10264 10266 10267 10270 10271 10274 10277 10280 10283 10286 10288 10291 10294 10296 10298 10300 10302 10305 10308 10311 10315 10317 10320 10322 10325
10255 10251 10248 10246 10243 10241 10240 10236 10234 10231 10230 10228 10227 10225 10224 10223 10223 10222 10221 10221 10221 10220 10220 10219 10219 10219 10219 10219 10219 10219 10219 10219 10219 10219 10219 10219 10219 10218 10218 10218 10217 10216 10216 10216 10216 10218 10219 10221 10223 10225 10226 10229 10231 10233 10236 10238 10241 10243 10245 10247 10249 10251 10252 10254 10256 10258 10260 10263 10266 10269 10272 10275 10278 10281 10283 10285 10288 10290 10293 10296 10300 10303 10306 10308 10311 10314
10239 10236 10233 10230 10228 10226 10225 10222 10220 10217 10215 10214 10213 10212 10211 10210 10209 10208 10208 10208 10207 10206 10206 10206 10206 10206 10206 10206 10206 10206 10206 10206 10206 10206 10206 10206 10206 10206 10205 10205 10205 10205 10205 10205 10205 10205 10206 10208 10210 10211 10213 10215 10217 10219 10221 10224 10227 10230 10231 10234 10236 10238 10239 10241 10243 10245 10247 10250 10252 10255 10258 10261 10265 10268 10270 10273 10275 10278 10281 10285 10288 10291 10295 10298 10301 10303
10224 10221 10218 10216 10214 10212 10210 10208 10206 10203 10201 10201 10200 10200 10198 10198 10196 10196 10195 10195 10195 10195 10195 10195 10195 10195 10194 10194 10193 10193 10193 10193 10193 10194 10194 10193 10193 10193 10193 10193 10193 10193 10193 10193 10193 10194 10195 10196 10197 10199 10200 10201 10203 10205 10208 10210 10213 10215 10218 10220 10223 10225 10226 10228 10230 10231 10233 10236 10239 10242 10245 10248 10251 10255 10257 10260 10263 10266 10268 10271 10275 10279 10283 10286 10289 10292
10210 10208 10205 10202 10200 10198 10197 10195 10193 10191 10189 10189 10188 10188 10187 10186 10185 10183 10183 10183 10183 10183 10183 10183 10183 10183 10183 10182 10182 10182 10182 10182 10182 10182 10181 10181 10181 10181 10181 10182 10182 10183 10183 10183 10183 10183 10183 10185 10185 10186 10188 10189 10191 10193 10195 10197 10200 10202 10205 10208 10210 10211 10213 10215 10216 10218 10220 10223 10226 10229 10232 10235 10238 10241 10245 10248 10250 10253 10256 10260 10263 10266 10270 10274 10277 10280
10198 10195 10193 10190 10188 10186 10185 10183 10181 10179 10178 10178 10177 10177 10176 10175 10173 10173 10173 10173 10172 10172 10172 10172 10172 10171 10171 10171 10171 10171 10171 10171 10171 10171 10170 10170 10170 10170 10171 10171 10171 10171 10171 10171 10172 10172 10173 10173 10174 10175 10176 10178 10180 10181 10183 10185 10188 10190 10193 10195 10197 10200 10201 10203 10205 10206 10208 10211 10213 10216 10220 10223 10226 10229 10231 10235 10238 10241 10244 10247 10250 10254 10258 10262 10265 10267
10186 10184 10181 10179 10177 10175 10174 10171 10170 10168 10167 10166 10166 10166 10165 10164 10163 10163 10163 10162 10161 10161 10161 10161 10161 10161 10161 10161 10161 10161 10161 10161 10161 10161 10160 10160 10160 10160 10160 10160 10161 10161 10161 10161 10161 10162 10163 10163 10164 10165 10166 10168 10169 10171 10172 10174 10176 10179 10181 10183 10186 10188 10190 10191 10193 10195 10196 10199 10201 10205 10208 10210 10213 10216 10220 10223 10226 10229 10232 10235 10238 10241 10245 10250 10253 10256
10175 10173 10171 10169 10167 10165 10163 10161 10160 10158 10157 10156 10156 10155 10155 10154 10154 10153 10153 10153 10152 10151 10151 10152 10152 10152 10151 10150 10150 10150 10151 10151 10151 10151 10150 10150 10150 10150 10150 10150 10151 10151 10151 10151 10152 10153 10153 10154 10155 10156 10156 10158 10159 10161 10162 10164 10166 10168 10170 10173 10175 10176 10178 10180 10182 10184 10186 10188 10190 10193 10196 10199 10202 10205 10208 10211 10214 10217 10220 10224 10226 10230 10233 10237 10241 10245
10165 10163 10161 10160 10157 10155 10153 10151 10150 10149 10148 10147 10146 10146 10145 10145 10145 10145 10145 10144 10143 10142 10142 10143 10143 10143 10142 10141 10141 10141 10141 10141 10141 10141 10141 10140 10140 10140 10141 10141 10141 10142 10142 10143 10143 10143 10144 10145 10146 10146 10148 10148 10150 10151 10153 10154 10156 10158 10160 10162 10164 10166 10168 10170 10171 10173 10175 10177 10180 10182 10185 10188 10191 10194 10196 10200 10203 10206 10209 10212 10215 10218 10221 10225 10229 10233
10155 10153 10152 10150 10148 10146 10144 10143 10141 10140 10139 10138 10138 10137 10136 10136 10136 10136 10136 10136 10135 10134 10134 10134 10134 10133 10133 10132 10132 10131 10132 10132 10132 10132 10131 10131 10131 10131 10131 10133 10133 10133 10133 10134 10134 10135 10135 10136 10137 10138 10139 10140 10141 10142 10143 10145 10146 10148 10150 10152 10154 10156 10158 10160 10161 10163 10165 10167 10169 10172 10175 10178 10180 10183 10186 10189 10192 10195 10198 10201 10204 10207 10210 10213 10217 10221
10147 10145 10143 10141 10139 10136 10135 10134 10133 10131 10130 10130 10129 10129 10128 10128 10128 10128 10128 10128 10127 10126 10126 10126 10126 10125 10124 10124 10123 10123 10124 10124 10124 10123 10123 10122 10121 10122 10123 10124 10125 10125 10126 10126 10126 10126 10127 10128 10129 10130 10130 10131 10132 10133 10135 10136 10138 10140 10141 10143 10145 10146 10148 10150 10151 10153 10155 10157 10160 10162 10165 10167 10170 10173 10175 10178 10181 10184 10187 10190 10193 10196 10200 10203 10206 10210
10139 10138 10135 10133 10131 10128 10126 10126 10125 10123 10123 10121 10121 10121 10121 10121 10121 10120 10120 10120 10120 10119 10119 10118 10118 10117 10116 10115 10115 10116 10116 10117 10116 10116 10115 10113 10113 10114 10115 10116 10117 10118 10118 10118 10118 10119 10120 10120 10121 10121 10122 10123 10124 10125 10126 10128 10129 10131 10133 10134 10136 10138 10140 10141 10143 10145 10146 10148 10150 10152 10155 10157 10160 10163 10165 10168 10171 10174 10176 10179 10182 10185 10188 10192 10196 10199
10132 10130 10128 10125 10123 10121 10119 10118 10117 10116 10115 10114 10114 10114 10114 10113 10113 10113 10113 10113 10112 10112 10112 10111 10111 10110 10108 10108 10108 10108 10110 10110 10110 10109 10108 10106 10106 10106 10108 10109 10110 10110 10110 10111 10111 10111 10113 10113 10114 10115 10115 10115 10116 10117 10118 10120 10121 10123 10124 10126 10128 10130 10131 10133 10134 10136 10138 10140 10141 10143 10146 10148 10151 10153 10156 10158 10161 10164 10166 10169 10172 10175 10178 10181 10185 10189
10125 10122 10120 10118 10116 10114 10112 10111 10110 10109 10108 10108 10107 10107 10107 10106 10106 10106 10106 10106 10106 10106 10105 10105 10104 10103 10101 10100 10101 10101 10103 10103 10103 10102 10101 10100 10099 10100 10101 10102 10103 10103 10103 10103 10104 10105 10106 10106 10107 10107 10108 10108 10108 10110 10110 10111 10113 10115 10116 10118 10120 10121 10123 10125 10126 10128 10129 10131 10133 10135 10137 10140 10142 10144 10146 10150 10152 10155 10158 10160 10162 10165 10168 10172 10176 10179
10116 10114 10111 10110 10108 10107 10106 10105 10103 10103 10102 10101 10101 10101 10101 10100 10100 10100 10100 10100 10100 10099 10098 10098 10097 10096 10095 10095 10094 10095 10096 10097 10096 10096 10095 10094 10093 10093 10095 10096 10096 10096 10096 10096 10096 10098 10099 10100 10100 10100 10100 10101 10101 10102 10103 10104 10105 10107 10108 10110 10112 10113 10115 10116 10118 10120 10121 10123 10125 10127 10129 10131 10133 10136 10138 10141 10143 10146 10149 10151 10153 10156 10160 10163 10167 10170
10110 10107 10104 10102 10101 10100 10099 10098 10097 10097 10096 10096 10096 10095 10095 10094 10094 10094 10093 10093 10093 10093 10092 10091 10091 10090 10090 10089 10088 10088 10090 10090 10090 10090 10089 10088 10087 10087 10088 10090 10090 10090 10089 10089 10090 10091 10092 10093 10093 10093 10093 10094 10095 10095 10096 10097 10098 10100 10101 10103 10105 10106 10108 10109 10110 10112 10113 10115 10117 10119 10121 10123 10126 10128 10130 10133 10135 10138 10140 10143 10145 10148 10151 10154 10158 10161
10106 10102 10098 10096 10095 10093 10093 10091 10091 10091 10091 10090 10090 10090 10089 10088 10088 10088 10088 10088 10087 10086 10086 10086 10085 10084 10084 10083 10082 10082 10083 10084 10084 10083 10082 10081 10081 10081 10083 10084 10084 10083 10083 10083 10084 10085 10085 10085 10085 10086 10086 10087 10088 10089 10090 10091 10092 10093 10095 10096 10097 10099 10100 10101 10103 10105 10106 10108 10110 10111 10114 10116 10118 10120 10123 10125 10127 10130 10132 10135 10137 10140 10142 10145 10148 10152
10101 10097 10094 10092 10091 10089 10087 10086 10085 10085 10085 10085 10085 10085 10084 10083 10083 10083 10082 10082 10081 10081 10080 10080 10079 10078 10078 10077 10076 10076 10077 10078 10078 10077 10076 10075 10075 10075 10076 10078 10078 10078 10077 10077 10078 10078 10079 10078 10078 10079 10080 10081 10081 10083 10083 10085 10086 10086 10088 10089 10090 10092 10093 10095 10096 10098 10099 10101 10103 10105 10106 10108 10111 10113 10115 10118 10120 10121 10124 10126 10130 10132 10135 10137 10140 10143
10096 10093 10090 10088 10087 10085 10083 10081 10080 10079 10079 10080 10079 10079 10078 10078 10078 10078 10077 10076 10076 10075 10075 10075 10073 10073 10072 10072 10071 10071 10072 10072 10072 10071 10070 10070 10069 10070 10071 10071 10072 10071 10071 10071 10072 10073 10073 10073 10073 10073 10074 10075 10076 10076 10078 10078 10080 10080 10081 10083 10084 10085 10086 10088 10090 10091 10093 10094 10096 10098 10100 10101 10103 10106 10108 10110 10112 10114 10116 10119 10122 10125 10128 10130 10133 10135
10090 10087 10085 10083 10082 10080 10078 10076 10075 10074 10073 10074 10073 10073 10073 10073 10072 10072 10071 10071 10071 10070 10070 10069 10068 10068 10067 10067 10066 10066 10066 10066 10066 10066 10065 10065 10063 10063 10065 10065 10066 10065 10065 10065 10066 10066 10067 10067 10067 10067 10068 10069 10070 10071 10071 10073 10073 10075 10075 10076 10078 10079 10080 10081 10083 10085 10086 10088 10090 10091 10093 10095 10096 10099 10101 10103 10105 10107 10110 10112 10115 10118 10121 10123 10125 10128
10083 10082 10080 10078 10077 10075 10074 10072 10071 10069 10068 10068 10067 10067 10066 10067 10066 10066 10066 10065 10065 10065 10065 10064 10063 10063 10062 10062 10062 10062 10061 10061 10061 10061 10060 10060 10058 10058 10059 10060 10060 10060 10059 10060 10060 10061 10061 10061 10062 10062 10063 10064 10065 10065 10066 10066 10068 10068 10070 10070 10071 10073 10074 10075 10077 10078 10080 10081 10083 10085 10086 10088 10090 10092 10094 10096 10098 10100 10103 10105 10108 10110 10114 10117 10119 10121
10078 10076 10075 10073 10072 10071 10069 10068 10066 10065 10064 10063 10062 10061 10061 10061 10061 10061 10060 10060 10060 10060 10060 10059 10058 10058 10057 10058 10058 10057 10056 10056 10056 10056 10055 10055 10053 10053 10053 10054 10055 10054 10053 10053 10055 10055 10056 10056 10057 10057 10058 10058 10059 10060 10060 10061 10061 10063 10063 10065 10066 10067 10068 10070 10071 10073 10074 10075 10077 10078 10080 10082 10084 10086 10088 10090 10092 10094 10096 10098 10100 10103 10106 10110 10112 10115
10072 10071 10070 10068 10067 10066 10065 10063 10062 10061 10060 10058 10058 10057 10056 10056 10056 10055 10055 10055 10055 10055 10055 10054 10053 10053 10053 10053 10053 10052 10051 10051 10051 10051 10051 10050 10049 10048 10048 10049 10050 10049 10048 10048 10049 10050 10051 10051 10052 10053 10053 10053 10054 10054 10055 10055 10056 10057 10058 10059 10060 10061 10062 10064 10065 10066 10068 10070 10071 10073 10075 10076 10078 10080 10081 10083 10085 10088 10090 10091 10094 10096 10098 10101 10105 10108
10066 10066 10065 10063 10062 10061 10060 10059 10058 10056 10056 10055 10054 10053 10053 10052 10051 10051 10050 10049 10049 10049 10050 10048 10048 10048 10048 10048 10048 10047 10046 10046 10046 10046 10046 10045 10044 10043 10043 10044 10045 10045 10044 10043 10044 10045 10045 10046 10047 10048 10048 10048 10049 10049 10050 10050 10051 10051 10052 10053 10054 10055 10056 10058 10060 10061 10063 10064 10065 10067 10068 10070 10072 10074 10076 10077 10080 10081 10083 10085 10088 10090 10091 10095 10098 10101
10061 10061 10060 10058 10058 10056 10056 10055 10053 10053 10051 10051 10050 10050 10050 10050 10048 10046 10044 10043 10044 10044 10044 10043 10043 10043 10043 10043 10043 10042 10042 10042 10042 10042 10041 10041 10040 10039 10039 10040 10040 10040 10040 10039 10039 10039 10040 10041 10042 10043 10043 10043 10044 10044 10045 10045 10045 10046 10047 10048 10049 10050 10051 10053 10054 10055 10057 10058 10060 10061 10063 10065 10066 10068 10070 10071 10073 10075 10078 10080 10081 10083 10085 10088 10091 10095
10057 10056 10055 10054 10053 10052 10051 10050 10049 10048 10047 10046 10046 10046 10046 10046 10045 10042 10040 10039 10040 10040 10039 10038 10038 10038 10038 10038 10038 10038 10037 10037 10037 10037 10036 10036 10035 10034 10035 10035 10035 10035 10035 10035 10034 10035 10035 10036 10037 10038 10038 10038 10039 10039 10040 10040 10040 10041 10042 10043 10044 10045 10046 10048 10049 10050 10051 10053 10054 10056 10057 10059 10061 10062 10064 10066 10068 10070 10071 10073 10075 10077 10080 10082 10085 10088
10053 10051 10050 10050 10048 10048 10047 10046 10045 10044 10043 10042 10041 10041 10041 10041 10040 10038 10036 10036 10035 10035 10034 10034 10034 10034 10034 10034 10033 10033 10032 10033 10033 10033 10032 10031 10030 10030 10030 10031 10031 10031 10031 10030 10030 10030 10030 10031 10032 10033 10033 10033 10034 10035 10035 10035 10036 10036 10037 10038 10039 10040 10041 10042 10043 10045 10046 10047 10048 10050 10051 10053 10055 10056 10058 10060 10061 10063 10065 10067 10070 10071 10074 10076 10080 10083
10048 10046 10046 10045 10044 10043 10043 10042 10041 10040 10039 10038 10037 10036 10036 10036 10035 10035 10033 10032 10031 10030 10030 10030 10030 10030 10030 10030 10029 10028 10028 10028 10028 10028 10028 10027 10026 10026 10026 10027 10027 10026 10026 10026 10026 10025 10025 10026 10028 10028 10028 10029 10030 10030 10031 10031 10031 10031 10032 10033 10034 10035 10036 10037 10038 10040 10041 10042 10043 10045 10046 10048 10050 10051 10053 10055 10056 10058 10060 10061 10063 10066 10068 10071 10074 10076
10043 10042 10041 10040 10040 10039 10038 10038 10037 10036 10035 10034 10033 10033 10032 10031 10030 10030 10030 10028 10027 10026 10026 10025 10025 10025 10025 10025 10025 10024 10023 10024 10025 10025 10024 10023 10021 10021 10022 10023 10023 10023 10022 10022 10022 10021 10021 10021 10023 10023 10024 10025 10025 10026 10026 10027 10027 10027 10028 10028 10029 10030 10031 10032 10033 10035 10035 10036 10038 10040 10041 10043 10044 10046 10047 10049 10051 10053 10054 10056 10058 10061 10063 10066 10068 10071
10038 10037 10036 10036 10035 10034 10033 10033 10032 10031 10031 10030 10030 10029 10028 10027 10026 10026 10025 10024 10023 10022 10021 10021 10021 10021 10021 10021 10020 10020 10020 10020 10020 10020 10020 10019 10018 10018 10018 10019 10019 10018 10018 10018 10018 10018 10017 10018 10018 10019 10020 10020 10021 10021 10022 10023 10023 10023 10023 10024 10025 10025 10026 10027 10028 10030 10031 10031 10033 10035 10036 10037 10039 10040 10042 10044 10045 10047 10049 10051 10053 10055 10058 10060 10063 10065
10034 10033 10031 10031 10030 10030 10029 10028 10028 10027 10026 10026 10025 10025 10025 10024 10023 10022 10021 10020 10019 10018 10018 10017 10016 10016 10016 10016 10016 10016 10016 10016 10016 10016 10016 10015 10014 10014 10014 10015 10015 10015 10015 10014 10013 10013 10013 10013 10014 10015 10015 10016 10017 10018 10018 10018 10018 10019 10019 10020 10020 10021 10021 10023 10024 10025 10026 10027 10028 10030 10031 10032 10034 10035 10037 10039 10040 10042 10044 10046 10048 10050 10053 10055 10057 10060
10030 10028 10027 10026 10026 10025 10024 10023 10023 10022 10021 10021 10021 10020 10020 10020 10020 10018 10018 10016 10016 10015 10013 10013 10013 10012 10012 10012 10011 10011 10011 10012 10013 10013 10013 10011 10011 10010 10010 10011 10011 10011 10011 10010 10010 10010 10010 10009 10010 10010 10011 10011 10013 10013 10014 10015 10015 10015 10015 10015 10016 10016 10018 10018 10020 10020 10021 10023 10024 10025 10026 10028 10029 10031 10032 10034 10036 10038 10039 10041 10043 10045 10048 10050 10052 10055
10025 10024 10023 10022 10021 10021 10020 10019 10018 10018 10016 10016 10016 10015 10015 10015 10015 10015 10014 10013 10012 10011 10010 10009 10008 10008 10008 10008 10007 10007 10007 10008 10008 10009 10009 10008 10008 10007 10007 10007 10007 10007 10007 10006 10006 10006 10006 10005 10006 10006 10007 10008 10008 10009 10010 10010 10011 10011 10011 10011 10012 10013 10013 10014 10015 10016 10017 10018 10020 10020 10021 10023 10025 10026 10027 10029 10031 10033 10035 10037 10039 10040 10043 10045 10047 10049
10021 10020 10019 10018 10017 10016 10016 10015 10014 10013 10012 10011 10011 10011 10011 10011 10010 10010 10010 10010 10009 10008 10006 10005 10005 10004 10003 10003 10003 10003 10003 10003 10004 10005 10005 10005 10005 10004 10004 10003 10003 10004 10003 10003 10003 10002 10002 10002 10002 10002 10003 10003 10004 10005 10006 10006 10006 10007 10008 10008 10008 10009 10010 10010 10011 10012 10013 10014 10015 10016 10018 10019 10020 10021 10023 10025 10026 10028 10030 10032 10034 10036 10038 10040 10042 10044
10018 10017 10016 10015 10013 10013 10011 10011 10010 10009 10008 10008 10007 10006 10006 10006 10006 10005 10005 10005 10005 10004 10003 10002 10001 10000 10000 9999 9998 9998 9998 9999 10000 10000 10001 10001 10001 10001 10000 10000 10000 10000 10000 10000 9999 9999 9998 9998 9998 9998 9999 10000 10000 10001 10001 10002 10003 10003 10004 10004 10005 10005 10006 10006 10007 10008 10009 10010 10011 10012 10013 10015 10016 10017 10019 10020 10022 10023 10025 10027 10029 10031 10033 10035 10037 10039
10016 10014 10013 10011 10010 10009 10008 10007 10006 10005 10005 10003 10003 10002 10001 10001 10001 10001 10001 10001 10001 10001 10000 9999 9998 9996 9996 9995 9994 9994 9994 9994 9995 9996 9997 9998 9998 9997 9997 9996 9996 9996 9996 9996 9996 9995 9995 9995 9995 9995 9995 9995 9996 9996 9997 9998 9998 9999 10000 10001 10001 10002 10003 10003 10003 10005 10005 10006 10008 10009 10010 10011 10012 10013 10015 10016 10018 10020 10021 10023 10025 10026 10029 10031 10033 10035
10013 10011 10010 10008 10007 10006 10005 10004 10003 10002 10001 10000 10000 9998 9998 9998 9998 9998 9998 9998 9998 9997 9996 9995 9995 9993 9992 9991 9990 9990 9990 9990 9991 9991 9993 9993 9994 9994 9993 9993 9993 9993 9993 9993 9992 9992 9991 9991 9991 9991 9991 9992 9992 9993 9993 9993 9994 9995 9996 9997 9998 9999 10000 10000 10000 10001 10001 10003 10004 10005 10006 10007 10008 10010 10011 10012 10014 10015 10017 10018 10020 10022 10025 10026 10029 10031
10009 10008 10006 10005 10003 10003 10001 10000 10000 9999 9998 9997 9996 9995 9994 9993 9993 9993 9993 9993 9993 9993 9993 9992 9991 9990 9989 9988 9986 9986 9986 9986 9986 9987 9988 9989 9990 9990 9990 9990 9990 9990 9990 9990 9989 9988 9988 9988 9988 9988 9988 9988 9988 9988 9989 9990 9990 9991 9992 9993 9995 9995 9996 9997 9997 9998 9998 9999 10000 10001 10002 10003 10005 10006 10007 10008 10010 10011 10013 10015 10016 10018 10020 10023 10025 10026
10005 10004 10003 10001 10001 10000 9998 9997 9996 9995 9995 9993 9992 9991 9991 9990 9989 9989 9988 9988 9989 9988 9988 9988 9987 9986 9985 9984 9983 9983 9982 9982 9983 9983 9984 9985 9986 9986 9986 9986 9986 9986 9986 9986 9985 9985 9985 9985 9985 9985 9985 9985 9985 9985 9985 9986 9986 9988 9988 9990 9991 9992 9993 9994 9994 9995 9995 9995 9996 9998 9998 10000 10001 10002 10003 10005 10006 10007 10009 10010 10012 10014 10016 10018 10021 10022
10002 10000 9999 9998 9996 9995 9994 9993 9992 9991 9990 9990 9989 9988 9987 9986 9986 9985 9985 9985 9984 9984 9984 9984 9983 9983 9981 9981 9980 9979 9978 9978 9979 9979 9980 9981 9981 9982 9983 9983 9983 9983 9983 9982 9982 9982 9981 9981 9981 9981 9981 9981 9981 9981 9981 9982 9983 9984 9985 9986 9987 9988 9989 9990 9991 9991 9991 9992 9993 9993 9995 9996 9997 9998 10000 10000 10001 10003 10005 10006 10008 10010 10011 10013 10016 10018
9999 9997 9996 9995 9993 9992 9991 9990 9988 9988 9986 9986 9985 9984 9983 9983 9982 9981 9981 9980 9980 9980 9980 9980 9980 9979 9978 9977 9976 9975 9975 9975 9975 9975 9976 9976 9977 9978 9978 9979 9979 9979 9979 9979 9978 9978 9978 9978 9978 9978 9978 9978 9978 9978 9978 9979 9980 9981 9981 9982 9983 9984 9985 9986 9987 9988 9988 9988 9989 9990 9991 9992 9993 9994 9995 9996 9998 9999 10000 10001 10003 10005 10007 10009 10011 10012
9996 9995 9993 9992 9990 9989 9988 9986 9986 9985 9983 9982 9981 9980 9980 9980 9979 9978 9977 9976 9976 9976 9976 9976 9975 9975 9973 9973 9973 9972 9971 9971 9971 9971 9972 9973 9973 9974 9974 9975 9975 9975 9975 9975 9975 9975 9975 9975 9975 9975 9975 9975 9975 9975 9975 9976 9976 9977 9978 9978 9979 9980 9980 9981 9983 9984 9985 9985 9986 9986 9987 9988 9989 9990 9991 9992 9993 9995 9996 9997 9999 10000 10002 10004 10006 10008
9994 9993 9991 9990 9988 9987 9985 9984 9983 9981 9980 9979 9978 9977 9976 9976 9975 9974 9973 9973 9972 9971 9971 9971 9971 9970 9970 9969 9969 9968 9968 9968 9968 9968 9968 9968 9969 9970 9970 9971 9971 9971 9971 9971 9971 9971 9971 9971 9971 9971 9971 9971 9971 9972 9973 9973 9974 9974 9975 9975 9975 9975 9976 9977 9978 9980 9981 9981 9983 9983 9984 9985 9985 9986 9987 9988 9990 9991 9992 9993 9995 9996 9998 9999 10001 10003
9991 9990 9989 9987 9986 9984 9983 9981 9980 9978 9977 9976 9975 9973 9973 9972 9971 9971 9970 9969 9968 9968 9967 9967 9966 9966 9966 9965 9965 9965 9965 9965 9965 9965 9965 9965 9965 9966 9966 9966 9967 9967 9968 9968 9968 9968 9967 9967 9967 9968 9968 9968 9968 9969 9970 9970 9971 9971 9971 9971 9971 9971 9972 9973 9974 9976 9977 9978 9979 9980 9980 9981 9981 9981 9983 9984 9985 9986 9988 9989 9990 9991 9993 9995 9996 9998
9989 9987 9986 9984 9983 9981 9980 9978 9977 9975 9974 9973 9971 9970 9970 9969 9968 9968 9966 9965 9965 9964 9964 9963 9963 9963 9962 9961 9961 9961 9961 9961 9961 9961 9961 9961 9961 9961 9962 9963 9963 9963 9963 9963 9963 9963 9963 9963 9964 9964 9965 9965 9966 9966 9966 9967 9967 9967 9967 9967 9968 9968 9968 9970 9970 9971 9973 9975 9976 9976 9977 9978 9978 9978 9979 9980 9981 9982 9983 9985 9986 9987 9988 9990 9991 9993
9985 9984 9982 9981 9979 9978 9976 9975 9974 9972 9971 9970 9968 9967 9966 9966 9965 9964 9963 9962 9961 9961 9960 9960 9960 9959 9958 9958 9958 9958 9958 9958 9958 9957 9957 9957 9958 9958 9958 9959 9960 9960 9960 9960 9960 9960 9960 9960 9960 9960 9961 9962 9963 9963 9963 9964 9964 9964 9964 9965 9965 9965 9965 9966 9966 9968 9969 9970 9971 9973 9974 9974 9975 9975 9975 9976 9977 9978 9979 9980 9981 9983 9985 9986 9987 9989
9982 9980 9979 9978 9976 9975 9973 9972 9971 9970 9968 9967 9966 9965 9963 9963 9961 9961 9960 9959 9958 9958 9957 9956 9956 9956 9955 9955 9955 9955 9955 9955 9954 9954 9954 9954 9954 9955 9955 9955 9956 9956 9956 9956 9956 9956 9956 9956 9956 9957 9958 9959 9960 9960 9960 9960 9960 9961 9961 9961 9962 9962 9963 9963 9963 9964 9965 9966 9967 9968 9970 9970 9971 9971 9972 9972 9973 9974 9975 9976 9978 9979 9981 9982 9983 9985
9978 9977 9976 9975 9973 9971 9970 9969 9968 9966 9965 9964 9963 9961 9961 9960 9958 9958 9957 9956 9956 9955 9954 9953 9953 9953 9952 9951 9951 9951 9951 9951 9951 9951 9951 9951 9951 9951 9951 9951 9952 9953 9953 9953 9953 9953 9953 9953 9953 9953 9955 9955 9956 9956 9956 9956 9957 9958 9958 9958 9959 9960 9960 9960 9960 9960 9961 9961 9963 9964 9966 9966 9968 9968 9968 9969 9970 9970 9971 9973 9974 9975 9977 9978 9980 9981